Regional Weather Roundup
Issued by NWS

Home | Current Version | Previous Version | Graphics & Text | Print | Product List | Glossary On
Versions: 1 2 3 4 5 6 7 8 9 10 11 12 13 14 15 16 17 18 19 20 21 22 23 24 25 26 27 28 29 30 31 32 33 34 35 36 37 38 39 40 41 42 43 44 45 46 47 48 49 50
119
ASUS45 KCYS 220810
RWRWY

WYOMING REGIONAL WEATHER ROUNDUP
NATIONAL WEATHER SERVICE CHEYENNE WY
100 AM MST WED FEB 22 2017

NOTE:  "FAIR" INDICATES FEW OR NO CLOUDS BELOW 12,000 FEET
WITH NO SIGNIFICANT WEATHER AND/OR OBSTRUCTIONS TO VISIBILITY.

WYZ001-220900-
YELLOWSTONE NATIONAL PARK

CITY           SKY/WX    TMP DP  RH WIND       PRES   REMARKS
LK YELLOWSTONE   N/A     21  17  84 W7        29.87R WCI  12
W YELLOWSTONE  NOT AVBL

$$
WYZ002>013-054>058-071-098>099-220900-
NORTHERN WYOMING

CITY           SKY/WX    TMP DP  RH WIND       PRES   REMARKS
JACKSON        CLOUDY    30  21  69 SW17G24   29.91S WCI  18
CODY           FAIR      36  23  59 W9        29.81R WCI  29
GREYBULL       FAIR      38  26  62 S6        29.79R WCI  33
WORLAND        FAIR      39  24  55 VRB7      29.80R WCI  34
SHERIDAN       FAIR      46  20  35 SW33G43   29.71S
BUFFALO        FAIR      45  19  35 W13       29.76R
GILLETTE       FAIR      44  32  62 SW20      29.72R
HULETT         FAIR      45  32  61 SW8       29.72R
NEWCASTLE      FAIR      41  34  75 E5        29.74F

$$
WYZ014>020-022>026-101>103-220900-
CENTRAL WYOMING

CITY           SKY/WX    TMP DP  RH WIND       PRES   REMARKS
BIG PINEY      MOCLDY    24  19  81 SW9       29.96F WCI  14
PINEDALE       PTSUNNY   27  25  93 SW6       29.95F WCI  20
DUBOIS         FAIR      27  18  69 W23       29.82S WCI  12
LANDER         FAIR      34  21  59 W22       29.86F WCI  22
RIVERTON       FAIR      32  30  92 W9        29.88S WCI  24
CASPER         CLOUDY    36  30  79 SW23G33   29.86S WCI  24
DOUGLAS        CLOUDY    38  30  73 SW9       29.85F WCI  31

$$
WYZ021-027>030-104>119-220900-
SOUTHERN WYOMING

CITY           SKY/WX    TMP DP  RH WIND       PRES   REMARKS
EVANSTON       LGT SNOW  27  24  89 S3        30.02S VSB 3/4
KEMMERER       LGT SNOW  27  25  93 SW9       30.00S WCI  17
FORT BRIDGER   LGT SNOW  28  28 100 W10       30.05F WCI  19
ROCK SPRINGS   LGT SNOW  28  25  88 W16       30.01R FOG     WCI  16
DIXON          LGT SNOW  31  29  94 SE5       30.06F WCI  26
RAWLINS        FLURRIES  29  24  82 W23G30    29.96F WCI  15
SARATOGA       LGT SNOW  30  30 100 SW8       30.02R VSB 3/4 WCI  23
LARAMIE        FAIR      32  25  75 NW18      29.94R WCI  20
CHEYENNE       FAIR      47  18  31 W17       29.87S
TORRINGTON     FAIR      44  31  60 NW21G30   29.84R
PINE BLUFFS    FAIR      43  19  39 W12G23    29.83S

$$




USA.gov is the U.S. government's official web portal to all federal, state and local government web resources and services.